Home   Weather   Berlin   Past weeks

Flag for Germany Past Weather in Berlin, Berlin, Germany — Yesterday and Last 2 Weeks

45 °F


Feels Like: 43 °F
Forecast: 41 / 49 °F
Wind: 3 mph from East

Location: Berlin-Tegel

Current Time: Oct 20, 2016 at 11:35:45 PM

Latest Report: Oct 20, 2016 at 10:50 PM

Visibility: 2 mi

Pressure: 29.92 "Hg

Humidity: 100%

Dew Point: 45 °F

Location of BerlinLocation

Past Weather in Berlin — Graph


Berlin Temperature Yesterday

Maximum temperature yesterday: 52 °F (at 12:20 AM)
Minimum temperature yesterday: 46 °F (at 9:20 AM)
Average temperature yesterday: 50 °F

High & Low Weather Summary for the Past Weeks

High55 °F (Oct 7, 3:50 PM)100% (Oct 6, 12:50 AM)30.30 "Hg (Oct 6, 12:50 AM)
Low39 °F (Oct 10, 12:50 AM)58% (Oct 14, 2:20 PM)29.86 "Hg (Oct 15, 4:50 AM)
Average48 °F89%30.12 "Hg
* Reported Oct 5 10:20 PM — Oct 20 10:20 PM, Berlin, Weather by CustomWeather, © 2016

Note: Actual official high and low records may vary slightly from our data, if they occured in-between our weather recording intervals... More about our weather records


Berlin Weather History for the Previous 24 Hours

Scroll right to see more
Time TempWeatherWind HumidityBarometerVisibility
10:20 PM
Thu, Oct 20
45 °FFog.7 mph100%29.92 "Hg3 mi
9:50 PM45 °FFog.2 mph93%29.95 "Hg3 mi
9:20 PM45 °FPartly cloudy.5 mph93%29.92 "Hg4 mi
8:50 PM45 °FPassing clouds.3 mph93%29.95 "Hg4 mi
8:20 PM45 °FClear.5 mph93%29.95 "Hg6 mi
7:50 PM45 °FPassing clouds.5 mph93%29.95 "HgN/A
7:20 PM45 °FClear.5 mph93%29.95 "Hg10 mi
6:50 PM46 °FClear.2 mph87%29.95 "Hg10 mi
6:20 PM46 °FPartly cloudy.3 mph87%29.95 "HgN/A
5:50 PM46 °FPartly sunny.5 mph87%29.95 "HgN/A
5:20 PM48 °FPartly sunny.7 mph82%29.95 "HgN/A
4:50 PM48 °FPartly sunny.7 mph82%29.95 "HgN/A
4:20 PM48 °FBroken clouds.6 mph82%29.95 "HgN/A
3:50 PM48 °FSprinkles. Broken clouds.5 mph87%29.95 "HgN/A
3:20 PM48 °FBroken clouds.7 mph82%29.95 "HgN/A
2:50 PM50 °FBroken clouds.5 mph71%29.95 "HgN/A
2:20 PM50 °FSprinkles. Broken clouds.3 mph71%29.95 "HgN/A
1:50 PM50 °FSprinkles. Broken clouds.3 mph76%29.95 "HgN/A
1:20 PM50 °FBroken clouds.3 mph71%29.98 "HgN/A
12:50 PM50 °FSprinkles. Partly sunny.6 mph71%29.98 "HgN/A
12:20 PM48 °FPartly sunny.6 mph76%29.98 "HgN/A
11:50 AM48 °FBroken clouds.6 mph76%29.98 "HgN/A
11:20 AM48 °FBroken clouds.7 mph76%29.98 "HgN/A
10:50 AM48 °FBroken clouds.7 mph76%29.98 "HgN/A
10:20 AM48 °FPassing clouds.6 mph82%29.98 "HgN/A
9:50 AM46 °FSunny.5 mph87%29.95 "Hg10 mi
9:20 AM45 °FPassing clouds.5 mph87%29.95 "HgN/A
8:50 AM45 °FSunny.5 mph87%29.95 "Hg10 mi
8:20 AM43 °FBroken clouds.3 mph87%29.95 "HgN/A
7:50 AM43 °FBroken clouds.6 mph87%29.92 "HgN/A
7:20 AM46 °FPassing clouds.5 mph82%29.92 "HgN/A
6:50 AM46 °FPassing clouds.6 mph82%29.92 "HgN/A
6:20 AM46 °FPartly cloudy.5 mph82%29.92 "HgN/A
5:50 AM46 °FPassing clouds.6 mph82%29.92 "HgN/A
5:20 AM48 °FPassing clouds.8 mph82%29.92 "HgN/A
4:50 AM48 °FPartly cloudy.7 mph82%29.92 "HgN/A
4:20 AM48 °FPartly cloudy.6 mph82%29.89 "HgN/A
3:50 AM48 °FPassing clouds.6 mph87%29.89 "HgN/A
3:20 AM48 °FPassing clouds.7 mph87%29.89 "HgN/A
2:50 AM46 °FPassing clouds.6 mph93%29.89 "HgN/A
2:20 AM46 °FPassing clouds.7 mph87%29.89 "HgN/A
1:50 AM48 °FPassing clouds.8 mph87%29.89 "HgN/A
1:20 AM48 °FPassing clouds.9 mph87%29.89 "HgN/A
12:50 AM48 °FPassing clouds.9 mph87%29.89 "HgN/A
12:20 AM48 °FPassing clouds.9 mph87%29.89 "HgN/A
11:50 PM
Wed, Oct 19
48 °FPassing clouds.8 mph87%29.89 "HgN/A
11:20 PM48 °FLight rain. Passing clouds.8 mph87%29.92 "HgN/A
Weather by CustomWeather, © 2016

See weather overviewHow to use our weather pages